Weather History for Palermo, Italy

Change the Weather History Date:

Sunday, November 3, 2013

  Actual Average Record
Temperature  
Mean Temperature 66 °F -  
Max Temperature 73 °F 66 °F 80 °F (2008)
Min Temperature 60 °F 57 °F 53 °F (2006)
Cooling Degree Days 2    
Growing Degree Days 16 (Base 50)    
Moisture  
Dew Point 58 °F    
Average Humidity 69    
Maximum Humidity 82    
Minimum Humidity 57    
Precipitation  
Precipitation 0.00 in 0.12 in - ()
Sea Level Pressure  
Sea Level Pressure 30.08 in    
Wind  
Wind Speed 8 mph ()    
Max Wind Speed 16 mph    
Max Gust Speed -    
Visibility 6.2 miles    
Events      
Averages and records for this station are not official NWS values.
T = Trace of Precipitation, MM = Missing Value Source: Averaged Metar Reports

Daily Weather History Graph

Daily Weather History Graph

Search for Another Location

Airport:

Trip Planner

Search our weather history database for the weather conditions in past years. The results will help you decide how hot, cold, wet, or windy it might be!

Date:

Astronomy

Nov. 03, 2013 Rise Set
Actual Time 6:35 AM CET 5:06 PM CET
Civil Twilight 6:08 AM CET 5:33 PM CET
Nautical Twilight 5:36 AM CET 6:04 PM CET
Astronomical Twilight 5:06 AM CET 6:35 PM CET
Moon 6:20 AM CET (11/3) 5:08 PM CET (11/3)
Length of Visible Light 11h 25m
Length of Day
10h 30m
Waning Crescent, 0% of the Moon is Illuminated
Nov 3
Waning Crescent
Nov 3
New
Nov 10
First Quarter
Nov 17
Full
Nov 25
Last Quarter

Hourly Weather History & Observations

Time (CET) Temp. Dew Point Humidity Pressure Visibility Wind Dir Wind Speed Gust Speed Precip Events Conditions
12:20 AM 62.6 °F 53.6 °F 72% 30.12 in - South 4.6 mph - N/A   Clear
12:50 AM 62.6 °F 53.6 °F 72% 30.12 in - SSE 6.9 mph - N/A   Clear
1:20 AM 62.6 °F 53.6 °F 72% 30.12 in - South 4.6 mph - N/A   Clear
1:50 AM 62.6 °F 53.6 °F 72% 30.12 in - South 5.8 mph - N/A   Clear
2:20 AM 64.4 °F 53.6 °F 68% 30.12 in - South 3.5 mph - N/A   Clear
2:50 AM 62.6 °F 53.6 °F 72% 30.09 in - SSW 5.8 mph - N/A   Clear
3:20 AM 60.8 °F 53.6 °F 77% 30.09 in - SSW 6.9 mph - N/A   Clear
3:50 AM 62.6 °F 55.4 °F 77% 30.09 in - SSW 5.8 mph - N/A   Clear
4:20 AM 64.4 °F 55.4 °F 73% 30.09 in - SSW 8.1 mph - N/A   Clear
4:50 AM 60.8 °F 55.4 °F 82% 30.09 in - SW 6.9 mph - N/A   Clear
5:20 AM 62.6 °F 55.4 °F 77% 30.09 in - SSW 8.1 mph - N/A   Clear
5:50 AM 60.8 °F 55.4 °F 82% 30.09 in - South 8.1 mph - N/A   Clear
6:20 AM 64.4 °F 55.4 °F 73% 30.09 in - South 8.1 mph - N/A   Clear
6:50 AM 64.4 °F 55.4 °F 73% 30.09 in - South 9.2 mph - N/A   Clear
7:20 AM 64.4 °F 57.2 °F 77% 30.12 in - South 10.4 mph - N/A   Clear
7:50 AM 66.2 °F 59.0 °F 78% 30.12 in - South 10.4 mph - N/A   Clear
8:20 AM 69.8 °F 59.0 °F 68% 30.12 in - South 9.2 mph - N/A   Clear
8:50 AM 69.8 °F 59.0 °F 68% 30.12 in - SSW 11.5 mph - N/A   Clear
9:20 AM 69.8 °F 57.2 °F 64% 30.12 in - SSW 12.7 mph - N/A   Clear
9:50 AM 73.4 °F 57.2 °F 57% 30.12 in - SSW 11.5 mph - N/A   Clear
10:20 AM 71.6 °F 59.0 °F 64% 30.12 in - SW 13.8 mph - N/A   Clear
10:50 AM 71.6 °F 59.0 °F 64% 30.12 in - SW 12.7 mph - N/A   Clear
11:20 AM 73.4 °F 57.2 °F 57% 30.12 in - SW 11.5 mph - N/A   Clear
11:50 AM 73.4 °F 57.2 °F 57% 30.09 in - SW 10.4 mph - N/A   Clear
12:20 PM 73.4 °F 57.2 °F 57% 30.09 in - WSW 9.2 mph - N/A   Clear
12:50 PM 73.4 °F 59.0 °F 61% 30.09 in 6.2 mi West 5.8 mph - N/A   Partly Cloudy
1:20 PM 73.4 °F 59.0 °F 61% 30.06 in 6.2 mi WSW 6.9 mph - N/A   Partly Cloudy
1:50 PM 73.4 °F 59.0 °F 61% 30.06 in 6.2 mi WSW 8.1 mph - N/A   Partly Cloudy
2:20 PM 73.4 °F 59.0 °F 61% 30.06 in 6.2 mi West 8.1 mph - N/A   Partly Cloudy
2:50 PM 71.6 °F 60.8 °F 69% 30.06 in 6.2 mi West 8.1 mph - N/A   Partly Cloudy
3:20 PM 73.4 °F 60.8 °F 65% 30.04 in 6.2 mi SW 9.2 mph - N/A   Partly Cloudy
3:50 PM 73.4 °F 60.8 °F 65% 30.04 in 6.2 mi SW 10.4 mph - N/A   Partly Cloudy
4:20 PM 73.4 °F 60.8 °F 65% 30.04 in 6.2 mi SW 6.9 mph - N/A   Partly Cloudy
4:50 PM 73.4 °F 60.8 °F 65% 30.04 in 6.2 mi SSW 5.8 mph - N/A   Partly Cloudy
5:20 PM 71.6 °F 62.6 °F 73% 30.04 in 6.2 mi West 6.9 mph - N/A   Scattered Clouds
5:50 PM 71.6 °F 60.8 °F 69% 30.04 in 6.2 mi WSW 12.7 mph - N/A   Scattered Clouds
6:20 PM 69.8 °F 59.0 °F 68% 30.06 in 6.2 mi SSW 11.5 mph - N/A   Partly Cloudy
6:50 PM 69.8 °F 59.0 °F 68% 30.06 in 6.2 mi South 13.8 mph - N/A   Partly Cloudy
7:20 PM 69.8 °F 59.0 °F 68% 30.06 in 6.2 mi South 12.7 mph - N/A   Partly Cloudy
7:50 PM 69.8 °F 59.0 °F 68% 30.06 in 6.2 mi South 11.5 mph - N/A   Partly Cloudy
8:20 PM 68.0 °F 59.0 °F 73% 30.06 in 6.2 mi South 9.2 mph - N/A   Partly Cloudy
8:50 PM 68.0 °F 57.2 °F 68% 30.06 in 6.2 mi South 10.4 mph - N/A   Partly Cloudy
9:20 PM 68.0 °F 57.2 °F 68% 30.06 in 6.2 mi South 10.4 mph - N/A   Partly Cloudy
9:50 PM 68.0 °F 57.2 °F 68% 30.06 in - South 11.5 mph - N/A   Clear
11:20 PM 68.0 °F 57.2 °F 68% 30.04 in - South 15.0 mph - N/A   Clear
11:50 PM 69.8 °F 59.0 °F 68% 30.04 in - South 16.1 mph - N/A   Clear